Meteo pe oră la Aba

Astăzi, 15 Iunie, Marţi

Timp Temperatura Precipitaţii Vânt Presiune Umiditate
00:00 +26°C° 0 mm 1 m/s 754 mmHg 94%
01:00 +26°C° 0.1 mm 1 m/s 754 mmHg 94%
02:00 +26°C° 0.1 mm 1 m/s 753 mmHg 94%
03:00 +26°C° 0.1 mm 1 m/s 753 mmHg 94%
04:00 +26°C° 0 mm 1 m/s 753 mmHg 94%
05:00 +26°C° 0 mm 1 m/s 753 mmHg 93%
06:00 +26°C° 0 mm 1 m/s 754 mmHg 93%
07:00 +27°C° 0 mm 1 m/s 754 mmHg 86%
08:00 +29°C° 0 mm 1 m/s 755 mmHg 79%
09:00 +30°C° 0 mm 1 m/s 755 mmHg 73%
10:00 +30°C° 0.6 mm 1 m/s 755 mmHg 76%
11:00 +29°C° 0.6 mm 1 m/s 755 mmHg 78%
12:00 +28°C° 0.6 mm 1 m/s 754 mmHg 81%
13:00 +28°C° 0 mm 1 m/s 754 mmHg 84%
14:00 +28°C° 0 mm 2 m/s 753 mmHg 86%
15:00 +27°C° 0 mm 2 m/s 752 mmHg 89%
16:00 +27°C° 0 mm 2 m/s 752 mmHg 90%
17:00 +27°C° 0 mm 1 m/s 753 mmHg 91%
18:00 +26°C° 0 mm 1 m/s 753 mmHg 92%
19:00 +26°C° 0 mm 1 m/s 753 mmHg 93%
20:00 +25°C° 0 mm 1 m/s 754 mmHg 94%
21:00 +25°C° 0 mm 1 m/s 754 mmHg 95%
22:00 +25°C° 0 mm 1 m/s 754 mmHg 95%
23:00 +25°C° 0 mm 1 m/s 754 mmHg 95%

Mâine, 16 Iunie, Miercuri

Timp Temperatura Precipitaţii Vânt Presiune Umiditate
00:00 +25°C° 0 mm 1 m/s 754 mmHg 96%
01:00 +25°C° 0 mm 1 m/s 754 mmHg 96%
02:00 +25°C° 0 mm 1 m/s 753 mmHg 96%
03:00 +24°C° 0 mm 1 m/s 753 mmHg 95%
04:00 +24°C° 0 mm 1 m/s 754 mmHg 94%
05:00 +23°C° 0 mm 0 m/s 754 mmHg 92%
06:00 +23°C° 0 mm 0 m/s 755 mmHg 91%
07:00 +26°C° 0 mm 1 m/s 755 mmHg 83%
08:00 +28°C° 0 mm 1 m/s 755 mmHg 76%
09:00 +29°C° 0 mm 2 m/s 755 mmHg 69%
10:00 +30°C° 0 mm 2 m/s 755 mmHg 65%
11:00 +32°C° 0 mm 2 m/s 754 mmHg 60%
12:00 +34°C° 0 mm 2 m/s 754 mmHg 56%
13:00 +33°C° 0.3 mm 3 m/s 753 mmHg 61%
14:00 +31°C° 0.3 mm 3 m/s 753 mmHg 65%
15:00 +30°C° 0.3 mm 4 m/s 753 mmHg 70%
16:00 +29°C° 0.1 mm 4 m/s 753 mmHg 75%
17:00 +28°C° 0.1 mm 3 m/s 753 mmHg 80%
18:00 +27°C° 0.1 mm 3 m/s 753 mmHg 84%
19:00 +27°C° 0.5 mm 3 m/s 754 mmHg 87%
20:00 +26°C° 0.5 mm 3 m/s 754 mmHg 90%
21:00 +26°C° 0.5 mm 3 m/s 754 mmHg 93%
22:00 +26°C° 0 mm 2 m/s 754 mmHg 93%
23:00 +25°C° 0 mm 2 m/s 754 mmHg 94%

Poimâine, 17 Iunie, Joi

Timp Temperatura Precipitaţii Vânt Presiune Umiditate
00:00 +25°C° 0 mm 1 m/s 754 mmHg 94%
01:00 +25°C° 0 mm 1 m/s 754 mmHg 94%
02:00 +25°C° 0 mm 1 m/s 754 mmHg 94%
03:00 +25°C° 0 mm 1 m/s 754 mmHg 94%
04:00 +25°C° 0 mm 1 m/s 754 mmHg 93%
05:00 +26°C° 0 mm 1 m/s 755 mmHg 92%
06:00 +26°C° 0 mm 1 m/s 755 mmHg 91%
07:00 +27°C° 0.3 mm 1 m/s 755 mmHg 84%
08:00 +29°C° 0.3 mm 1 m/s 756 mmHg 77%
09:00 +30°C° 0.3 mm 1 m/s 756 mmHg 71%
10:00 +31°C° 1.2 mm 2 m/s 756 mmHg 70%
11:00 +31°C° 1.2 mm 2 m/s 755 mmHg 69%
12:00 +31°C° 1.2 mm 2 m/s 755 mmHg 68%
13:00 +31°C° 1.5 mm 2 m/s 754 mmHg 70%
14:00 +31°C° 1.5 mm 2 m/s 754 mmHg 71%
15:00 +30°C° 1.5 mm 2 m/s 754 mmHg 73%
16:00 +29°C° 1 mm 2 m/s 754 mmHg 78%
17:00 +28°C° 1 mm 2 m/s 754 mmHg 84%
18:00 +26°C° 1 mm 2 m/s 754 mmHg 90%
19:00 +26°C° 3.1 mm 2 m/s 755 mmHg 92%
20:00 +26°C° 3.1 mm 2 m/s 755 mmHg 94%
21:00 +25°C° 3.1 mm 2 m/s 756 mmHg 96%
22:00 +25°C° 0.1 mm 2 m/s 755 mmHg 96%
23:00 +25°C° 0.1 mm 1 m/s 755 mmHg 95%

18 Iunie, Vineri

Timp Temperatura Precipitaţii Vânt Presiune Umiditate
00:00 +25°C° 0.1 mm 1 m/s 755 mmHg 95%
01:00 +25°C° 0 mm 1 m/s 755 mmHg 96%
02:00 +23°C° 0 mm 0 m/s 754 mmHg 96%
03:00 +23°C° 0 mm 0 m/s 754 mmHg 96%
04:00 +23°C° 0 mm 0 m/s 754 mmHg 96%
05:00 +23°C° 0 mm 0 m/s 755 mmHg 95%
06:00 +23°C° 0 mm 0 m/s 755 mmHg 95%
07:00 +27°C° 0.1 mm 1 m/s 755 mmHg 88%
08:00 +28°C° 0.1 mm 1 m/s 756 mmHg 81%
09:00 +30°C° 0.1 mm 1 m/s 756 mmHg 74%
10:00 +31°C° 0.6 mm 1 m/s 755 mmHg 70%
11:00 +32°C° 0.6 mm 1 m/s 755 mmHg 66%
12:00 +33°C° 0.6 mm 1 m/s 754 mmHg 63%
13:00 +32°C° 0.9 mm 1 m/s 754 mmHg 65%
14:00 +32°C° 0.9 mm 2 m/s 753 mmHg 68%
15:00 +31°C° 0.9 mm 2 m/s 753 mmHg 71%
16:00 +30°C° 1.3 mm 3 m/s 753 mmHg 77%
17:00 +28°C° 1.3 mm 3 m/s 754 mmHg 83%
18:00 +27°C° 1.3 mm 3 m/s 754 mmHg 88%
19:00 +27°C° 0.2 mm 3 m/s 755 mmHg 90%
20:00 +26°C° 0.2 mm 2 m/s 755 mmHg 91%
21:00 +26°C° 0.2 mm 2 m/s 755 mmHg 92%
22:00 +26°C° 0.1 mm 2 m/s 755 mmHg 93%
23:00 +26°C° 0.1 mm 1 m/s 755 mmHg 94%

19 Iunie, Sâmbătă

Timp Temperatura Precipitaţii Vânt Presiune Umiditate
00:00 +26°C° 0.1 mm 1 m/s 755 mmHg 94%
01:00 +25°C° 0.1 mm 1 m/s 755 mmHg 95%
02:00 +25°C° 0.1 mm 1 m/s 755 mmHg 95%
03:00 +25°C° 0.1 mm 1 m/s 754 mmHg 95%
04:00 +25°C° 0 mm 1 m/s 755 mmHg 95%
05:00 +25°C° 0 mm 1 m/s 755 mmHg 94%
06:00 +26°C° 0 mm 1 m/s 755 mmHg 94%
07:00 +27°C° 0.4 mm 1 m/s 756 mmHg 88%
08:00 +28°C° 0.4 mm 1 m/s 756 mmHg 82%
09:00 +29°C° 0.4 mm 2 m/s 756 mmHg 77%
10:00 +30°C° 1.2 mm 2 m/s 755 mmHg 75%
11:00 +30°C° 1.2 mm 2 m/s 755 mmHg 73%
12:00 +31°C° 1.2 mm 3 m/s 755 mmHg 72%
13:00 +29°C° 2.1 mm 3 m/s 754 mmHg 77%
14:00 +28°C° 2.1 mm 3 m/s 754 mmHg 83%
15:00 +27°C° 2.1 mm 3 m/s 753 mmHg 89%
16:00 +27°C° 0.3 mm 2 m/s 754 mmHg 90%
17:00 +26°C° 0.3 mm 2 m/s 754 mmHg 91%
18:00 +26°C° 0.3 mm 1 m/s 754 mmHg 93%
19:00 +26°C° 0.3 mm 2 m/s 755 mmHg 93%
20:00 +26°C° 0.3 mm 2 m/s 755 mmHg 94%
21:00 +26°C° 0.3 mm 2 m/s 756 mmHg 95%
22:00 +26°C° 0 mm 2 m/s 755 mmHg 95%
23:00 +25°C° 0 mm 1 m/s 755 mmHg 95%

20 Iunie, Duminică

Timp Temperatura Precipitaţii Vânt Presiune Umiditate
00:00 +25°C° 0 mm 1 m/s 755 mmHg 95%
01:00 +25°C° 0 mm 1 m/s 755 mmHg 95%
02:00 +25°C° 0 mm 1 m/s 755 mmHg 96%
03:00 +25°C° 0 mm 1 m/s 754 mmHg 96%
04:00 +25°C° 0 mm 1 m/s 755 mmHg 95%
05:00 +23°C° 0 mm 0 m/s 755 mmHg 94%
06:00 +23°C° 0 mm 0 m/s 756 mmHg 94%
07:00 +25°C° 0.3 mm 0 m/s 756 mmHg 87%
08:00 +28°C° 0.3 mm 1 m/s 756 mmHg 80%
09:00 +30°C° 0.3 mm 1 m/s 756 mmHg 73%
10:00 +30°C° 1.4 mm 1 m/s 756 mmHg 73%
11:00 +30°C° 1.4 mm 2 m/s 755 mmHg 72%
12:00 +31°C° 1.4 mm 2 m/s 755 mmHg 71%
13:00 +30°C° 1.4 mm 2 m/s 754 mmHg 73%
14:00 +30°C° 1.4 mm 3 m/s 754 mmHg 75%
15:00 +30°C° 1.4 mm 3 m/s 753 mmHg 77%
16:00 +29°C° 1 mm 2 m/s 753 mmHg 81%
17:00 +28°C° 1 mm 2 m/s 754 mmHg 85%
18:00 +27°C° 1 mm 2 m/s 754 mmHg 88%
19:00 +26°C° 1.4 mm 2 m/s 754 mmHg 90%
20:00 +26°C° 1.4 mm 1 m/s 755 mmHg 91%
21:00 +26°C° 1.4 mm 1 m/s 755 mmHg 93%
22:00 +26°C° 0.2 mm 1 m/s 755 mmHg 93%
23:00 +26°C° 0.2 mm 1 m/s 755 mmHg 94%
Arată mai mult

Formular de consimțământ

Meteoprog și furnizorii noștri de servicii pot stoca și accesa date personale, precum cookies, identificatori de dispozitiv sau alte tehnologii similare pe dispozitivul dumneavoastră și procesa astfel de date pentru a personaliza conținutul și reclamele, dar și pentru a oferi caracteristici de social media și pentru a analiza traficul.

  • Stocarea și/sau accesarea informațiilor pe dispozitivul dumneavoastră

    Cookies, identificatori de dispozitiv sau alte informații pot fi stocate sau accesate pe dispozitiv în scopurile indicate mai sus.

  • Reclame și conținut personalizat, evaluarea reclamelor și a conținutului, informații despre audiențe și dezvoltarea produselor

    Reclamele și conținutul pot fi personalizate pe baza unui profil. Pot fi adăugate date suplimentare pentru a personaliza mai bine reclamele și conținutul. Performanța reclamelor și conținutului poate fi măsurată. Pot fi obținute informații despre utilizatorii care au văzut reclamele și conținutul. Aceste date pot fi utilizate pentru a dezvolta sau îmbunătăți experiența utilizatorilor, sistemele și software-ul.

Dând clic pe ‘Sunt de acord’, permiteți utilizarea cookie-urilor menționate, a identificatorilor de dispozitiv, balizelor web sau altor tehnologii similare. Setările pot fi modificate din browser-ul dispozitivului dumneavoastră.

În anumite scopuri, interesele legitime pot prima asupra consimțământului. Puteți citi mai multe informații în acest sens în Politica privind Confidențialitatea Datelor și Cookie.